Teterboro, NJ

10:51 PM EDT on August 31, 2016 (GMT -0400)
Teterboro

Weather History for KTEB - March, 2013

Change the Weather History Date:

Tuesday, March 12, 2013

  Actual Average Record
Temperature  
Mean Temperature 50 °F -  
Max Temperature 57 °F 44 °F 70 °F (2012)
Min Temperature 43 °F 29 °F 19 °F (1998)
Degree Days  
Heating Degree Days 15    
Moisture  
Dew Point 49 °F    
Average Humidity 89    
Maximum Humidity 100    
Minimum Humidity 71    
Precipitation  
Precipitation 0.98 in - - ()
Sea Level Pressure  
Sea Level Pressure 29.82 in    
Wind  
Wind Speed 12 mph (South)    
Max Wind Speed 23 mph    
Max Gust Speed 38 mph    
Visibility 6 miles    
Events Rain    
Averages and records for this station are not official NWS values.
T = Trace of Precipitation, MM = Missing Value Source: NWS Daily Summary

Daily Weather History Graph

Daily Weather History Graph

Search for Another Location

Airport or City:

Trip Planner

Search our weather history database for the weather conditions in past years. The results will help you decide how hot, cold, wet, or windy it might be!

Date:

Astronomy

Mar. 12, 2013 Rise Set
Actual Time 7:12 AM EDT 6:59 PM EDT
Civil Twilight 6:45 AM EDT 7:27 PM EDT
Nautical Twilight 6:13 AM EDT 7:59 PM EDT
Astronomical Twilight 5:41 AM EDT 8:31 PM EDT
Moon 7:16 AM EDT (3/12) 8:13 PM EDT (3/12)
Length of Visible Light 12h 42m
Length of Day
11h 47m
New Moon, 1% of the Moon is Illuminated
Mar 12
New Moon
Mar 19
First Quarter
Mar 27
Full
Apr 3
Last Quarter
Apr 10
New

Hourly Weather History & Observations

Time (EDT) Temp. Windchill Dew Point Humidity Pressure Visibility Wind Dir Wind Speed Gust Speed Precip Events Conditions
12:03 AM 50.0 °F - 46.4 °F 87% 30.09 in 10.0 mi South 9.2 mph - N/A   Scattered Clouds
12:51 AM 50.0 °F - 46.9 °F 89% 30.06 in 10.0 mi South 6.9 mph - N/A   Mostly Cloudy
1:51 AM 51.8 °F - 48.2 °F 88% 30.01 in 10.0 mi South 10.4 mph - N/A   Clear
2:51 AM 51.1 °F - 46.9 °F 86% 30.00 in 10.0 mi South 11.5 mph - N/A   Mostly Cloudy
3:51 AM 51.1 °F - 46.0 °F 83% 29.99 in 10.0 mi South 9.2 mph - N/A   Mostly Cloudy
4:51 AM 51.1 °F - 46.0 °F 83% 29.97 in 10.0 mi South 9.2 mph - 0.00 in Rain Light Rain
5:51 AM 51.1 °F - 48.0 °F 89% 29.95 in 10.0 mi SSE 6.9 mph - 0.04 in Rain Light Rain
6:51 AM 51.1 °F - 48.0 °F 89% 29.95 in 7.0 mi South 8.1 mph - 0.04 in Rain Light Rain
7:51 AM 50.0 °F - 48.0 °F 93% 29.94 in 4.0 mi South 9.2 mph - 0.04 in Rain Light Rain
8:51 AM 51.1 °F - 48.9 °F 92% 29.92 in 5.0 mi South 10.4 mph - 0.03 in Rain Light Rain
9:51 AM 52.0 °F - 50.0 °F 93% 29.91 in 7.0 mi South 11.5 mph 19.6 mph 0.03 in Rain Light Rain
10:51 AM 53.1 °F - 50.0 °F 89% 29.88 in 5.0 mi South 11.5 mph 21.9 mph 0.05 in Rain Light Rain
11:24 AM 53.6 °F - 50.0 °F 88% 29.86 in 4.0 mi South 13.8 mph - 0.07 in Rain Light Rain
11:51 AM 53.1 °F - 51.1 °F 93% 29.84 in 3.0 mi SSE 16.1 mph 24.2 mph 0.11 in Rain Light Rain
11:59 AM 53.6 °F - 51.8 °F 94% 29.84 in 4.0 mi South 16.1 mph 24.2 mph 0.01 in Rain Light Rain
12:18 PM 53.6 °F - 51.8 °F 94% 29.82 in 4.0 mi South 16.1 mph 20.7 mph 0.04 in Rain Light Rain
12:51 PM 54.0 °F - 51.1 °F 90% 29.80 in 4.0 mi South 18.4 mph 25.3 mph 0.08 in Rain Light Rain
1:03 PM 53.6 °F - 51.8 °F 94% 29.80 in 4.0 mi South 19.6 mph 27.6 mph 0.00 in Rain Light Rain
1:12 PM 53.6 °F - 51.8 °F 94% 29.80 in 4.0 mi South 21.9 mph 38.0 mph 0.02 in Rain Rain
1:51 PM 53.1 °F - 51.1 °F 93% 29.76 in 4.0 mi South 18.4 mph 34.5 mph 0.08 in Rain Rain
2:51 PM 54.0 °F - 51.1 °F 90% 29.70 in 5.0 mi South 23.0 mph 33.4 mph 0.09 in Rain Light Rain
3:15 PM 53.6 °F - 51.8 °F 94% 29.69 in 1.8 mi South 20.7 mph 34.5 mph 0.01 in Rain Light Rain
3:46 PM 51.8 °F - 51.8 °F 100% 29.69 in 1.8 mi South 16.1 mph 25.3 mph 0.25 in Rain Rain
3:51 PM 52.0 °F - 51.1 °F 97% 29.69 in 1.8 mi South 15.0 mph 25.3 mph 0.30 in Rain Rain
4:14 PM 53.6 °F - 51.8 °F 94% 29.67 in 5.0 mi South 13.8 mph 18.4 mph 0.05 in Rain Light Rain
4:51 PM 55.0 °F - 52.0 °F 89% 29.66 in 2.5 mi South 13.8 mph 23.0 mph 0.06 in Rain Light Rain
4:58 PM 55.4 °F - 53.6 °F 94% 29.66 in 3.0 mi South 12.7 mph 23.0 mph 0.00 in Rain Light Rain
5:30 PM 55.4 °F - 53.6 °F 94% 29.67 in 2.0 mi South 12.7 mph - 0.02 in Rain Light Rain
5:44 PM 55.4 °F - 53.6 °F 94% 29.67 in 5.0 mi SSE 8.1 mph 19.6 mph 0.03 in Rain Light Rain
5:51 PM 55.0 °F - 53.1 °F 93% 29.67 in 5.0 mi South 4.6 mph - 0.03 in   Overcast
6:15 PM 55.4 °F - 53.6 °F 94% 29.69 in 6.0 mi South 4.6 mph - N/A   Overcast
6:51 PM 54.0 °F - 52.0 °F 93% 29.72 in 9.0 mi WNW 11.5 mph 19.6 mph 0.00 in   Overcast
7:17 PM 53.6 °F - 48.2 °F 82% 29.75 in 10.0 mi NW 15.0 mph - N/A   Overcast
7:51 PM 52.0 °F - 45.0 °F 77% 29.76 in 10.0 mi NW 12.7 mph 20.7 mph N/A   Overcast
8:51 PM 48.9 °F - 39.9 °F 71% 29.81 in 10.0 mi NW 13.8 mph 21.9 mph N/A   Overcast
9:51 PM 46.9 °F - 37.9 °F 71% 29.82 in 10.0 mi NW 12.7 mph 21.9 mph N/A   Overcast
10:51 PM 45.0 °F 38.2 °F 37.0 °F 74% 29.83 in 10.0 mi NW 15.0 mph 20.7 mph N/A   Overcast
11:51 PM 43.0 °F 37.7 °F 36.0 °F 76% 29.83 in 10.0 mi NW 9.2 mph - N/A   Clear